OBJECT AN, 61771

Orbit data source: Space-Track

You're viewing an Uncataloged Satellite

Recently launched and/or uncataloged satellites may have evolving metadata. Metadata may include but not limited to: Owner, Maufacturer, Bus, Motor, and Mission.

OBJECT AN, 61771 is a satellite in SSO that was launched on Mon, 04 Nov 2024 UTC via a SOYUZ-2-1B launch vehicle from the Vostochny Cosmodrome (VOSTO). Unknown objects in Earth's orbit typically refer to objects detected orbiting the Earth but have not yet been identified or cataloged. These objects could be anything from previously untracked satellites, spent rocket stages, debris from satellite collisions, or even natural meteoroids temporarily captured by Earth's gravity.

Loading next visibility...
Identifier
61771, 2024-199AN
Orbit
SSO
Country
Flag of TBDTBD
Related business
Manufacturer
Sputniks
Mission
Operational Commercial Communications
Bus & Motor
CUBESAT 3U?, Unknown motor
Mass
3 kg wet, 3 kg dry
Launch date (UTC)
2024-11-04 (1 year ago)
Launch vehicle
SOYUZ-2-1B
Launch site
Vostochny Cosmodrome (VOSTO)
Object type
Unknown
Shape & HBR
Box, 0.1 m
Radar Cross Section
0.035 m², Small (<0.1 m²)

Expand to show TLE details & history
Last TLE update: 11 hours ago

TLE from 11 hours ago
0 OBJECT AN
1 61771U 24199AN  25312.88283493  .00041380  00000-0  10150-2 0  9990
2 61771  97.3230 180.9899 0012031  24.2478 335.9332 15.40521137100329
Epoch: 2025-11-08T21:11Z
TLE epoch observation values (Epoch: 2025-11-08T21:11:16.937Z)
Latitude
-0.00008°
Longitude
174.86327°
Altitude
440.196 km
Speed
7.652 km/s
True Right ascension
12h 03m 57s
True Declination
0° 00' 00"
Sunlit
Object was in daylight at epoch
Visualization orbit readout
Latitude
Unknown
Longitude
Unknown
Altitude
Unknown
Speed
Unknown
Apparent Right ascension
Unknown
Apparent Declination
Unknown
Sunlit
N/A
Visualization observer readout
Local Sidereal Time
04:10:42
Azimuth
Unknown
Elevation
Unknown
Doppler factor
Unknown
Orbital elements
Apogee altitude
449.71 km
Perigee altitude
433.3 km
Semi-major axis
6,819.642 km
Eccentricity
0.0012
Inclination
97.323°
RAAN
180.9899°
Arg. of periapsis
24.2478°
True anomaly
335.8769°
Mean anomaly
335.9332°
Eccentric anomaly
335.90506°
Mean motion
3.8539 °/min
Orbital period
93.41 mins
BSTAR
0.001015
Loading maneuver chart data...
Computing Atmospheric mass density...
Loading historical data...
Loading historical data...
Loading historical data...
Loading historical data...
Loading historical data...
Loading historical data...
Loading historical data...

Documentation

Showing up to 5 results
|